Location: Shannon
(40.5500°S, 175.4167°E)
Time: 20:19:16
(UTC+00:00)

USA 267 - Pass Details

Date: 17 November 2025
Orbit: 1100 x 1108 km, 123.0° (Epoch: 21 November)

Event Time Altitude Azimuth Distance (km) Brightness Sun altitude
Exits shadow 13:14:57 36° 272° (W) 1,684 4.0 -28.0°
Drops below altitude 10° 13:19:24 10° 239° (WSW) 2,988 5.6 -27.8°
Sets 13:22:03 0° 231° (SW) 3,952 6.4 -27.6°
